[[{"header":{"parameterUnit":"m.s-1","parameterCategory":2,"la1":30.2991,"la2":30.254,"lo1":-89.0895,"lo2":-89.0444,"dy":0.0017,"dx":0.0017,"nx":28,"ny":28,"refTime":"2025-05-29T21:00:00:Z","depth":"0","parameterNumber":2,"parameterNumberName":"U-component_of_CURRENTS"},"data":[0,0,0,0,0,0,0,0,0,0,0,0,0,0,0,0,0,0,0,0,0,0,0,0,0,0,0,0,0,0,0,0,0,0,0,0,0,0,0,0,0,0,0,0,0,0,0,0,0,0,0,0,0,0,0,0,0,0,0.4343,0.4343,0,0.427,0.4268,0.4267,0.4238,0.4238,0.4239,0.424,0.419,0.4188,0.4186,0,0,0,0,0,0,0,0,0,0,0,0,0,0.438,0.4379,0.4343,0.4343,0.4342,0.427,0.4268,0.4267,0.4238,0.4239,0.4239,0.424,0.4191,0.4189,0.4186,0,0,0,0,0,0,0,0,0,0,0,0,0,0.4336,0.4379,0.4343,0.4323,0.4321,0.427,0.4268,0.4266,0.4238,0.4239,0.424,0.4241,0.4192,0.4189,0.4186,0.4148,0,0,0.4177,0.4176,0,0,0,0,0,0,0,0,0.4339,0.4334,0.4326,0.4324,0.4322,0.4269,0.4263,0.423,0.4237,0.4264,0.424,0.4241,0.4221,0.4216,0.4192,0.4145,0.4143,0.4177,0.4175,0.4174,0.4173,0,0,0,0,0,0,0,0.4342,0.4337,0.4309,0.4326,0.4323,0.4291,0.4286,0.4256,0.4234,0.4261,0.426,0.426,0.422,0.4195,0.4191,0.4142,0.4177,0.4174,0.4172,0.4171,0.4212,0.4215,0,0,0,0,0,0,0.4364,0.434,0.4311,0.4307,0.4339,0.429,0.4284,0.428,0.4234,0.4229,0.426,0.4259,0.4199,0.4194,0.4189,0.4245,0.4174,0.4171,0.4169,0.4209,0.4213,0.4216,0,0,0,0,0,0,0.4365,0.4362,0.4314,0.4326,0.4319,0.429,0.4285,0.4279,0.4266,0.4233,0.4228,0.4256,0.42,0.4193,0.4194,0.4239,0.417,0.4167,0.4206,0.421,0.4214,0.4291,0,0,0,0,0,0,0.4367,0.4363,0.4365,0.4328,0.4319,0.4294,0.4284,0.4277,0.4267,0.4266,0.4228,0.4224,0.42,0.4199,0.4191,0.4234,0.4165,0.4202,0.4208,0.4213,0.4285,0.4297,0.4308,0,0,0,0,0,0.4368,0.4368,0.4365,0.4362,0.4323,0.4294,0.4286,0.4265,0.4266,0.4257,0.4253,0.4226,0.4229,0.4197,0.4188,0.4231,0.42,0.4206,0.4213,0.4279,0.4295,0.4307,0,0,0,0,0,0,0.4376,0.4364,0.436,0.4354,0.4333,0.4292,0.4283,0.4271,0.4255,0.426,0.4235,0.423,0.4254,0.4234,0.4201,0.4267,0.422,0.4225,0.4275,0.4288,0.43,0.4361,0.4162,0,0,0,0,0,0.4382,0.4382,0.4361,0.4354,0.4348,0.4317,0.4304,0.4289,0.4273,0.4266,0.4247,0.425,0.4268,0.4271,0.4265,0.4279,0.4343,0.4314,0.4326,0.4335,0.4384,0.4516,0.4545,0.4237,0.4237,0.4237,0,0,0.438,0.4377,0.4373,0.4357,0.4337,0.4336,0.431,0.4293,0.4313,0.4263,0.4281,0.4273,0.4281,0.4311,0.4322,0.4301,0.4458,0.4344,0.4351,0.4396,0.4526,0.4557,0.4584,0.4241,0.424,0.424,0,0,0.4375,0.4376,0.4374,0.4366,0.4352,0.4344,0.4347,0.4316,0.4328,0.4326,0.4334,0.4372,0.434,0.4396,0.4414,0.449,0.451,0.4475,0.4582,0.4709,0.4736,0.4761,0.4886,0.4921,0.4486,0.4487,0.4487,0,0.4378,0.4374,0.4366,0.4366,0.4379,0.4358,0.4369,0.4375,0.4352,0.4404,0.4345,0.4413,0.4402,0.4523,0.4554,0.4521,0.459,0.4518,0.4726,0.4752,0.4775,0.4898,0.4936,0.4491,0.4491,0.449,0.449,0,0.4366,0.4374,0.4373,0.4385,0.4398,0.4395,0.442,0.4449,0.4454,0.4476,0.4563,0.4549,0.461,0.4611,0.4598,0.4775,0.4769,0.4718,0.469,0.4812,0.4932,0.497,0.4497,0.4496,0.4494,0.4493,0,0,0.4347,0.4364,0.4365,0.4392,0.4413,0.4425,0.4501,0.4579,0.468,0.4651,0.4793,0.4806,0.4813,0.4841,0.4836,0.4944,0.5158,0.4909,0.4913,0.5035,0.5455,0.5313,0.534,0.5135,0.5141,0.5147,0.5473,0,0.4343,0.4359,0.438,0.4425,0.4445,0.4501,0.4587,0.4671,0.4741,0.4872,0.4919,0.5011,0.4897,0.4944,0.5032,0.514,0.5262,0.5076,0.5321,0.533,0.5188,0.5381,0.504,0.5289,0.5511,0.5517,0.5521,0,0.4326,0.4349,0.4381,0.4489,0.4509,0.4548,0.4734,0.4806,0.5006,0.5077,0.5181,0.5213,0.5378,0.5252,0.5487,0.537,0.5436,0.5495,0.5507,0.5383,0.5259,0.5204,0.535,0.5183,0.558,0.5575,0.5571,0,0.4313,0.4366,0.4403,0.4422,0.4526,0.4599,0.4681,0.4868,0.5003,0.5229,0.5362,0.5494,0.5605,0.5696,0.5749,0.5659,0.602,0.5905,0.5848,0.5838,0.5605,0.5562,0.5619,0.6113,0.6112,0.6111,0.611,0,0.4304,0.4337,0.4398,0.4411,0.4533,0.4605,0.4785,0.4912,0.5145,0.5333,0.5452,0.5623,0.5725,0.5892,0.5904,0.6,0.6136,0.5942,0.5938,0.5618,0.5575,0.5458,0.5392,0.6123,0.6121,0.6118,0.6116,0,0.4279,0.4299,0.4363,0.4469,0.4517,0.4608,0.4833,0.4975,0.519,0.5456,0.554,0.581,0.5999,0.6083,0.6292,0.6207,0.6124,0.6302,0.5915,0.5856,0.5562,0.5512,0.5484,0.5334,0.6316,0.6314,0.6313,0,0.4256,0.4273,0.4394,0.4458,0.4503,0.4649,0.4765,0.4979,0.5132,0.5538,0.5662,0.5956,0.6088,0.6344,0.6261,0.6302,0.6124,0.6039,0.5786,0.5571,0.5516,0.5328,0.5189,0.553,0.5523,0.5517,0.5512,0,0.4244,0.4287,0.4358,0.4475,0.4578,0.4706,0.4866,0.4992,0.5253,0.5457,0.5731,0.5883,0.6096,0.597,0.6022,0.5989,0.5697,0.5914,0.5804,0.5027,0.4722,0.4561,0.5308,0.5459,0.5464,0.5468,0.5471,0.5473,0.4256,0.4315,0.4405,0.452,0.4619,0.4704,0.4753,0.4918,0.5097,0.5285,0.5568,0.563,0.5662,0.5647,0.5611,0.5294,0.5349,0.5063,0.5071,0.4941,0.462,0.5254,0.5302,0.5307,0.531,0.5314,0.5317,0,0.4256,0.4334,0.4444,0.4536,0.4566,0.4643,0.4771,0.4751,0.4821,0.4993,0.512,0.5048,0.494,0.4928,0.4684,0.4459,0.4263,0.4344,0.3995,0.3941,0.4605,0.4384,0.4095,0.4095,0.4095,0.4095,0.4095,0.4095,0.4267,0.4345,0.4394,0.4432,0.447,0.4414,0.442,0.4401,0.4441,0.4346,0.4234,0.4271,0.4372,0.4319,0.403,0.3904,0.3607,0.3396,0.3519,0.3949,0.4015,0.4077,0.3853,0.3457,0.3457,0.2597,0.2591,0.2586]},{"header":{"parameterUnit":"m.s-1","parameterCategory":2,"la1":30.2991,"la2":30.254,"lo1":-89.0895,"lo2":-89.0444,"dy":0.0017,"dx":0.0017,"nx":28,"ny":28,"refTime":"2025-05-29T21:00:00:Z","depth":"0","parameterNumber":3,"parameterNumberName":"V-component_of_CURRENTS"},"data":[0,0,0,0,0,0,0,0,0,0,0,0,0,0,0,0,0,0,0,0,0,0,0,0,0,0,0,0,0,0,0,0,0,0,0,0,0,0,0,0,0,0,0,0,0,0,0,0,0,0,0,0,0,0,0,0,0,0,0.0198,0.0198,0,0.0131,0.013,0.0129,0.0082,0.0081,0.0081,0.0081,-0.0003,-0.0005,-0.0007,0,0,0,0,0,0,0,0,0,0,0,0,0,0.0205,0.0206,0.0198,0.0198,0.0197,0.0131,0.013,0.0129,0.0082,0.0081,0.0081,0.0081,-0.0002,-0.0004,-0.0007,0,0,0,0,0,0,0,0,0,0,0,0,0,0.0174,0.0206,0.0198,0.0168,0.0165,0.0131,0.013,0.0128,0.0082,0.0081,0.0081,0.0081,-0.0001,-0.0004,-0.0007,-0.0026,0,0,-0.0017,-0.0019,0,0,0,0,0,0,0,0,0.0176,0.0173,0.0173,0.017,0.0167,0.0118,0.0102,0.0077,0.0082,0.011,0.0081,0.0081,0.0038,0.0032,0.0015,-0.003,-0.0033,-0.0018,-0.002,-0.0021,-0.0022,0,0,0,0,0,0,0,0.0178,0.0175,0.0168,0.0173,0.0169,0.0131,0.0126,0.0096,0.0072,0.0107,0.0104,0.0102,0.0036,0.0018,0.0013,-0.0034,-0.0018,-0.002,-0.0022,-0.0024,-0.0083,-0.0082,0,0,0,0,0,0,0.0198,0.0178,0.017,0.0166,0.0175,0.0131,0.0126,0.0131,0.0073,0.0065,0.0103,0.0101,0.0024,0.0016,0.0009,0.0019,-0.0021,-0.0024,-0.0026,-0.0083,-0.0083,-0.0082,0,0,0,0,0,0,0.0198,0.0198,0.0173,0.0173,0.0167,0.0132,0.0137,0.0129,0.0117,0.007,0.0061,0.01,0.0023,0.0014,-0.0007,0.0014,-0.0026,-0.0029,-0.0083,-0.0083,-0.0082,0.0015,0,0,0,0,0,0,0.0199,0.0198,0.0204,0.0175,0.0168,0.0167,0.0137,0.0128,0.0118,0.0114,0.0065,0.0056,0.0023,-0.0002,-0.0011,0.0009,-0.0031,-0.0084,-0.0083,-0.0083,0.0012,0.0019,0.0026,0,0,0,0,0,0.0199,0.0217,0.0205,0.0204,0.0179,0.0168,0.0162,0.0133,0.0118,0.012,0.0085,0.0058,-0.0004,-0.0004,-0.0014,0.0005,-0.0084,-0.0083,-0.0083,0.0009,0.0018,0.0026,0,0,0,0,0,0,0.0221,0.0213,0.0199,0.0212,0.0196,0.0162,0.0161,0.0141,0.0113,0.011,0.0062,0.0051,0.0038,0.0005,0.0006,-0.0012,-0.0048,-0.0049,0.0025,0.0033,0.004,0.0071,-0.0034,0,0,0,0,0,0.023,0.0241,0.0222,0.0231,0.0227,0.0194,0.0184,0.0168,0.0142,0.0129,0.0096,0.006,0.0032,0.0022,-0.0013,-0.0019,-0.0025,-0.0015,-0.0008,-0.0002,0.0015,0.0026,0.0036,-0.0079,-0.0079,-0.0079,0,0,0.0239,0.0237,0.0242,0.0236,0.0219,0.0227,0.0187,0.0184,0.0193,0.0125,0.0124,0.008,0.0034,0.0025,0.0017,0.0003,0.0029,-0.0001,0.0005,0.0019,0.0028,0.004,0.005,-0.0079,-0.0079,-0.0079,0,0,0.0275,0.0264,0.0288,0.0282,0.0272,0.0253,0.0258,0.0231,0.0223,0.0209,0.0168,0.0145,0.0094,0.0077,0.0058,0.0084,0.0062,0.0067,0.0135,0.0145,0.0156,0.0165,0.0184,0.0194,0.0076,0.0077,0.0077,0,0.0287,0.0316,0.0292,0.0314,0.0319,0.0273,0.03,0.0284,0.0254,0.0262,0.0222,0.0171,0.0124,0.0134,0.0135,0.0104,0.0108,0.011,0.0158,0.0167,0.0174,0.0192,0.0201,0.0081,0.0081,0.008,0.008,0,0.0342,0.0362,0.0377,0.0391,0.039,0.0405,0.0386,0.0389,0.0363,0.0345,0.0341,0.0275,0.0248,0.0227,0.0184,0.0217,0.0203,0.0164,0.0145,0.0192,0.0207,0.0215,0.0088,0.0087,0.0085,0.0084,0,0,0.038,0.0412,0.0416,0.0446,0.0437,0.045,0.0469,0.0483,0.0517,0.0464,0.0505,0.0432,0.0392,0.0368,0.0316,0.0319,0.0364,0.027,0.0268,0.0306,0.0403,0.0351,0.0355,0.0338,0.034,0.0341,0.0396,0,0.0432,0.0501,0.0496,0.0556,0.0591,0.0568,0.0596,0.0601,0.0587,0.0611,0.0554,0.0557,0.0448,0.0446,0.0426,0.0387,0.0389,0.0353,0.0336,0.0337,0.0298,0.0363,0.0344,0.0387,0.0404,0.0406,0.0407,0,0.0491,0.0533,0.0604,0.0664,0.0678,0.07,0.0751,0.0776,0.0788,0.0782,0.0762,0.0711,0.0703,0.0602,0.056,0.0545,0.048,0.044,0.0441,0.0366,0.03,0.0338,0.0402,0.0195,0.0419,0.0418,0.0417,0,0.0544,0.0612,0.0677,0.0692,0.0742,0.0779,0.0807,0.0828,0.0884,0.0903,0.0949,0.0887,0.0909,0.0804,0.0688,0.0637,0.0656,0.0573,0.0468,0.0464,0.043,0.042,0.0306,0.055,0.0549,0.0549,0.0549,0,0.0608,0.0662,0.0711,0.0747,0.0844,0.085,0.0951,0.097,0.1028,0.1141,0.1045,0.1135,0.0965,0.0938,0.0778,0.0667,0.0722,0.0505,0.0482,0.0462,0.0454,0.0256,0.0132,0.0551,0.0551,0.055,0.055,0,0.0659,0.0684,0.0772,0.0842,0.0872,0.0944,0.1058,0.1141,0.1179,0.1329,0.1355,0.1361,0.134,0.1152,0.1034,0.0827,0.0576,0.0638,0.0628,0.06,0.0254,0.0138,0.0001,-0.0078,0.0523,0.0522,0.0522,0,0.0693,0.0741,0.0844,0.0915,0.0951,0.1059,0.1148,0.1209,0.1318,0.1496,0.1595,0.1622,0.1691,0.1469,0.112,0.0843,0.062,0.0599,0.0469,0.0255,0.0108,0.0011,-0.0052,0.0475,0.0474,0.0474,0.0473,0,0.0766,0.0796,0.0871,0.1013,0.1116,0.1249,0.1385,0.1492,0.162,0.1784,0.2018,0.21,0.1889,0.1616,0.1179,0.0953,0.0427,0.057,0.0361,0.0076,-0.0045,-0.0138,0.0421,0.0465,0.0466,0.0467,0.0467,0.0467,0.082,0.0892,0.0995,0.1131,0.1262,0.1436,0.1572,0.1757,0.1989,0.2279,0.2339,0.2532,0.2033,0.1453,0.1108,0.0391,0.0399,0.0149,0.0037,-0.0032,-0.0156,0.0383,0.0377,0.0378,0.0378,0.0378,0.0378,0,0.0893,0.0981,0.1115,0.1287,0.145,0.1499,0.1738,0.1911,0.2231,0.2524,0.2763,0.262,0.2028,0.1377,0.0394,-0.0071,-0.0233,-0.0323,-0.0467,-0.0497,0.0004,-0.005,-0.0164,-0.0164,-0.0164,-0.0163,-0.0163,-0.0163,0.0939,0.1071,0.1142,0.1414,0.155,0.1782,0.1929,0.2213,0.246,0.2833,0.2965,0.3015,0.2419,0.0745,-0.0335,-0.0547,-0.0867,-0.0958,-0.1077,-0.0764,-0.0729,-0.0696,-0.0776,-0.104,-0.1041,-0.1527,-0.1532,-0.1536]}],[{"header":{"parameterUnit":"m.s-1","parameterCategory":2,"la1":30.2991,"la2":30.254,"lo1":-89.0895,"lo2":-89.0444,"dy":0.0017,"dx":0.0017,"nx":28,"ny":28,"refTime":"2025-05-29T21:00:00:Z","depth":"2","parameterNumber":2,"parameterNumberName":"U-component_of_CURRENTS"},"data":[0,0,0,0,0,0,0,0,0,0,0,0,0,0,0,0,0,0,0,0,0,0,0,0,0,0,0,0,0,0,0,0,0,0,0,0,0,0,0,0,0,0,0,0,0,0,0,0,0,0,0,0,0,0,0,0,0,0,0.3229,0.3229,0,0.3246,0.3246,0.3246,0.3247,0.3247,0.3247,0.3247,0.324,0.324,0.3239,0,0,0,0,0,0,0,0,0,0,0,0,0,0.317,0.3171,0.3229,0.3229,0.3229,0.3246,0.3246,0.3246,0.3247,0.3247,0.3247,0.3247,0.324,0.324,0.3239,0,0,0,0,0,0,0,0,0,0,0,0,0,0.319,0.3172,0.3228,0.3233,0.3234,0.3246,0.3246,0.3246,0.3247,0.3247,0.3247,0.3247,0.324,0.324,0.3239,0.3238,0,0,0.3239,0.3238,0,0,0,0,0,0,0,0,0.3189,0.3192,0.3232,0.3233,0.3234,0.3246,0.3223,0.3243,0.3247,0.324,0.3247,0.3247,0.3241,0.3241,0.3241,0.3238,0.3237,0.3239,0.3238,0.3238,0.3238,0,0,0,0,0,0,0,0.3188,0.3191,0.3233,0.3233,0.3234,0.3226,0.3229,0.3227,0.3238,0.324,0.3241,0.3246,0.3241,0.3241,0.3241,0.3237,0.3239,0.3238,0.3238,0.3238,0.3303,0.3305,0,0,0,0,0,0,0.3192,0.319,0.3233,0.3234,0.3214,0.3227,0.323,0.324,0.3239,0.3239,0.3246,0.3246,0.3242,0.3241,0.3241,0.3293,0.3238,0.3238,0.3238,0.3301,0.3304,0.3306,0,0,0,0,0,0,0.3191,0.3196,0.3232,0.3214,0.3218,0.3229,0.324,0.3241,0.3258,0.3244,0.3243,0.3265,0.3242,0.3241,0.3263,0.3291,0.3238,0.3238,0.3299,0.3302,0.3305,0.3364,0,0,0,0,0,0,0.3189,0.3195,0.3206,0.3214,0.322,0.3252,0.324,0.3241,0.3262,0.3262,0.3259,0.3258,0.3242,0.3263,0.3263,0.329,0.3237,0.3297,0.33,0.3304,0.3359,0.3368,0.3376,0,0,0,0,0,0.3187,0.3192,0.3206,0.3212,0.3233,0.3254,0.3256,0.3261,0.3263,0.3275,0.328,0.3259,0.3285,0.3265,0.3263,0.3291,0.3295,0.3299,0.3304,0.3356,0.3366,0.3376,0,0,0,0,0,0,0.3174,0.3194,0.3209,0.3222,0.3247,0.3255,0.3266,0.3274,0.3288,0.3293,0.3277,0.3277,0.3311,0.3296,0.3273,0.3323,0.3289,0.3293,0.3329,0.3339,0.3347,0.3383,0.3237,0,0,0,0,0,0.3179,0.3188,0.3215,0.323,0.3246,0.3263,0.3273,0.3284,0.3296,0.3302,0.3302,0.3309,0.3325,0.3328,0.3336,0.3356,0.3397,0.3376,0.3384,0.3391,0.3422,0.3528,0.3549,0.332,0.332,0.332,0,0,0.3179,0.3192,0.3199,0.3228,0.3248,0.3276,0.3269,0.3297,0.3329,0.3299,0.3339,0.334,0.334,0.3369,0.3382,0.3359,0.3475,0.3397,0.3402,0.343,0.3535,0.3557,0.3578,0.3323,0.3322,0.3322,0,0,0.3183,0.3202,0.3215,0.3238,0.3275,0.3292,0.3307,0.3334,0.3358,0.3389,0.339,0.3419,0.3418,0.3441,0.3447,0.3509,0.3521,0.3501,0.3562,0.3664,0.3685,0.3703,0.3769,0.3793,0.3497,0.3497,0.3497,0,0.3183,0.3208,0.3224,0.3248,0.3276,0.3305,0.3341,0.3369,0.34,0.3429,0.341,0.3467,0.3461,0.3526,0.3546,0.353,0.358,0.3518,0.3677,0.3696,0.3714,0.3778,0.3803,0.3501,0.35,0.35,0.35,0,0.3198,0.3227,0.324,0.3284,0.3318,0.3351,0.3401,0.3435,0.3461,0.3489,0.356,0.3568,0.3608,0.3604,0.3589,0.3709,0.37,0.3681,0.3653,0.3741,0.3801,0.3827,0.3505,0.3504,0.3503,0.3502,0,0,0.318,0.3238,0.3246,0.3278,0.3344,0.3371,0.3439,0.3509,0.3565,0.3595,0.368,0.3707,0.3728,0.3742,0.3742,0.3817,0.3969,0.3805,0.3809,0.3873,0.4188,0.4057,0.4072,0.3984,0.3989,0.3993,0.4174,0,0.3194,0.3247,0.3276,0.3339,0.3379,0.3429,0.3488,0.3554,0.3619,0.3703,0.3748,0.3825,0.3779,0.3818,0.389,0.3967,0.4043,0.3921,0.4093,0.4098,0.3973,0.41,0.3747,0.3868,0.4199,0.4203,0.4206,0,0.3196,0.3243,0.3304,0.3381,0.3404,0.3441,0.3556,0.3624,0.3746,0.3796,0.3888,0.3936,0.4064,0.4012,0.4199,0.4128,0.4175,0.4213,0.4221,0.4103,0.4016,0.3837,0.3902,0.4249,0.4246,0.4243,0.424,0,0.3176,0.3253,0.3306,0.3332,0.3424,0.3463,0.3531,0.3649,0.3729,0.3897,0.3982,0.4105,0.4213,0.4301,0.4371,0.4318,0.4569,0.45,0.442,0.441,0.4146,0.4103,0.4646,0.4646,0.4646,0.4645,0.4645,0,0.3164,0.3206,0.3296,0.3321,0.3389,0.3473,0.3576,0.365,0.3803,0.3913,0.4052,0.4159,0.4302,0.4437,0.4461,0.4532,0.465,0.4476,0.4471,0.4151,0.4109,0.4461,0.4437,0.4652,0.465,0.4649,0.4648,0,0.3114,0.3174,0.3233,0.3338,0.3372,0.3431,0.3579,0.3661,0.3827,0.3991,0.406,0.4265,0.4431,0.4538,0.4701,0.4654,0.4721,0.4704,0.4301,0.4244,0.4467,0.4444,0.4653,0.4651,0.4649,0.4647,0.4645,0,0.309,0.3114,0.3223,0.3261,0.3302,0.3411,0.3482,0.3643,0.3737,0.4023,0.4087,0.4326,0.4425,0.4624,0.4594,0.4638,0.4709,0.4324,0.4146,0.4506,0.448,0.4461,0.4441,0.3819,0.381,0.3804,0.3798,0,0.3041,0.3074,0.313,0.3206,0.3275,0.3363,0.348,0.352,0.3731,0.3861,0.402,0.4138,0.4349,0.4226,0.431,0.4272,0.4284,0.4186,0.473,0.3853,0.3729,0.3699,0.3707,0.3739,0.3745,0.3749,0.3752,0.3755,0.3003,0.3019,0.308,0.3136,0.3213,0.3254,0.3267,0.3381,0.3462,0.3574,0.3785,0.3851,0.3941,0.3863,0.3766,0.3701,0.398,0.3794,0.3812,0.3837,0.369,0.3567,0.3518,0.3523,0.3527,0.353,0.3533,0,0.2946,0.2961,0.3001,0.3034,0.3037,0.3154,0.3212,0.3151,0.3139,0.331,0.3392,0.3168,0.3142,0.3238,0.3045,0.3058,0.3001,0.2931,0.2815,0.2879,0.2935,0.2737,0.2315,0.2311,0.2306,0.2303,0,0,0.2916,0.2915,0.2912,0.2836,0.2873,0.2823,0.2824,0.2765,0.2793,0.2696,0.2726,0.2999,0.3156,0.2683,0.2632,0.2435,0.263,0.2345,0.3333,0.3262,0.3312,0.3457,0.3229,0,0,0,0,0]},{"header":{"parameterUnit":"m.s-1","parameterCategory":2,"la1":30.2991,"la2":30.254,"lo1":-89.0895,"lo2":-89.0444,"dy":0.0017,"dx":0.0017,"nx":28,"ny":28,"refTime":"2025-05-29T21:00:00:Z","depth":"2","parameterNumber":3,"parameterNumberName":"V-component_of_CURRENTS"},"data":[0,0,0,0,0,0,0,0,0,0,0,0,0,0,0,0,0,0,0,0,0,0,0,0,0,0,0,0,0,0,0,0,0,0,0,0,0,0,0,0,0,0,0,0,0,0,0,0,0,0,0,0,0,0,0,0,0,0,0.0146,0.0145,0,0.0087,0.0086,0.0085,0.0048,0.0048,0.0047,0.0047,-0.0023,-0.0025,-0.0026,0,0,0,0,0,0,0,0,0,0,0,0,0,0.0152,0.0153,0.0146,0.0145,0.0145,0.0087,0.0086,0.0085,0.0048,0.0048,0.0047,0.0047,-0.0022,-0.0024,-0.0027,0,0,0,0,0,0,0,0,0,0,0,0,0,0.0125,0.0153,0.0146,0.0121,0.0118,0.0087,0.0086,0.0085,0.0048,0.0048,0.0047,0.0047,-0.0021,-0.0024,-0.0027,-0.0043,0,0,-0.0035,-0.0036,0,0,0,0,0,0,0,0,0.0127,0.0125,0.0125,0.0122,0.0119,0.0076,0.0062,0.0042,0.0048,0.0072,0.0047,0.0047,0.0011,0.0005,-0.0008,-0.0046,-0.0049,-0.0036,-0.0037,-0.0038,-0.0039,0,0,0,0,0,0,0,0.0129,0.0127,0.012,0.0124,0.0121,0.0087,0.0084,0.0058,0.0041,0.007,0.0068,0.0064,0.0009,-0.0006,-0.001,-0.005,-0.0035,-0.0038,-0.004,-0.0041,-0.0099,-0.0098,0,0,0,0,0,0,0.0145,0.0129,0.0122,0.0119,0.0125,0.0087,0.0083,0.0088,0.0041,0.0034,0.0064,0.0063,-0.0001,-0.0007,-0.0013,-0.0011,-0.0038,-0.0041,-0.0043,-0.0099,-0.0099,-0.0098,0,0,0,0,0,0,0.0145,0.0145,0.0125,0.0123,0.0119,0.0088,0.0094,0.0087,0.0077,0.0037,0.003,0.0061,-0.0001,-0.0009,-0.0028,-0.0015,-0.0042,-0.0045,-0.0099,-0.0099,-0.0098,-0.0023,0,0,0,0,0,0,0.0146,0.0146,0.0151,0.0125,0.012,0.0117,0.0094,0.0086,0.0076,0.0073,0.0032,0.0025,-0.0002,-0.0023,-0.003,-0.0019,-0.0047,-0.0099,-0.0099,-0.0099,-0.0026,-0.002,-0.0016,0,0,0,0,0,0.0146,0.0162,0.0152,0.0151,0.013,0.0118,0.0112,0.0088,0.0076,0.0077,0.0049,0.0027,-0.0027,-0.0025,-0.0034,-0.0023,-0.0099,-0.0099,-0.0099,-0.0028,-0.0021,-0.0016,0,0,0,0,0,0,0.0166,0.0158,0.0147,0.0159,0.0143,0.0113,0.0111,0.0093,0.0071,0.0069,0.0029,0.0021,0.0007,-0.0021,-0.0018,-0.0041,-0.0067,-0.0069,-0.0011,-0.0005,-0.0,0.0026,-0.0049,0,0,0,0,0,0.0174,0.0184,0.0166,0.0174,0.0169,0.014,0.013,0.0117,0.0094,0.0084,0.0056,0.0025,0.0,-0.0011,-0.0039,-0.0049,-0.0073,-0.005,-0.0045,-0.0041,-0.0027,-0.0046,-0.004,-0.0098,-0.0098,-0.0098,0,0,0.0182,0.018,0.0184,0.0178,0.0162,0.0167,0.0134,0.0129,0.0136,0.008,0.0078,0.0041,-0.0,-0.0011,-0.002,-0.0031,-0.004,-0.004,-0.0036,-0.0024,-0.0045,-0.0039,-0.0034,-0.0097,-0.0097,-0.0097,0,0,0.021,0.0204,0.0222,0.0217,0.0206,0.0189,0.0192,0.0167,0.016,0.0147,0.0112,0.0087,0.0044,0.0025,0.0007,0.0022,-0.0015,0.0008,0.0058,0.004,0.0045,0.0049,0.0017,0.0018,0.0013,0.0013,0.0013,0,0.0219,0.0245,0.0224,0.0241,0.0247,0.0205,0.0228,0.0212,0.0184,0.0188,0.0156,0.0102,0.0064,0.006,0.0062,0.0035,0.0015,0.0042,0.0048,0.0052,0.0055,0.0022,0.0022,0.0017,0.0016,0.0016,0.0016,0,0.0263,0.0282,0.0293,0.0305,0.0304,0.0317,0.0299,0.0299,0.0276,0.0255,0.024,0.018,0.0152,0.0129,0.0099,0.0105,0.0079,0.0057,0.004,0.0066,0.0028,0.0027,0.0022,0.0021,0.002,0.0019,0,0,0.0291,0.0321,0.0325,0.0354,0.0346,0.0359,0.0372,0.0378,0.0404,0.0346,0.0371,0.0301,0.0262,0.024,0.0193,0.0171,0.0162,0.013,0.0128,0.0111,0.0116,0.0075,0.0069,0.0146,0.0147,0.0147,0.0078,0,0.0333,0.0394,0.0391,0.0446,0.0479,0.046,0.0484,0.0483,0.0464,0.0474,0.0404,0.0395,0.0306,0.0301,0.026,0.0204,0.0164,0.0183,0.0083,0.008,0.0051,0.0069,0.0099,0.0039,0.0076,0.0076,0.0076,0,0.0379,0.042,0.0485,0.0547,0.056,0.0581,0.0628,0.065,0.0641,0.063,0.0591,0.0529,0.0488,0.0408,0.03,0.0319,0.0221,0.0157,0.0152,0.0092,0.0038,0.0019,0.0035,0.0073,0.0073,0.0074,0.0074,0,0.0429,0.0491,0.0553,0.057,0.062,0.0655,0.0685,0.0695,0.0752,0.0736,0.0771,0.0668,0.0658,0.0521,0.0359,0.034,0.0238,0.0195,0.0055,0.005,0.0045,0.0039,0.0106,0.0106,0.0106,0.0106,0.0107,0,0.0484,0.0537,0.0586,0.0623,0.0719,0.0726,0.0827,0.0839,0.0889,0.0979,0.0863,0.0904,0.069,0.0594,0.0415,0.0238,0.0272,0.0071,0.0036,0.0069,0.0066,0.0072,0.0069,0.0104,0.0104,0.0105,0.0105,0,0.0532,0.0556,0.0644,0.0714,0.0746,0.082,0.0946,0.1027,0.1054,0.1174,0.1182,0.1105,0.0975,0.0735,0.0523,0.0338,0.0153,0.007,0.0111,0.0082,-0.0041,-0.004,-0.008,-0.0082,-0.0084,-0.0085,-0.0086,0,0.0562,0.0608,0.0718,0.0792,0.083,0.0946,0.1039,0.1103,0.1207,0.1308,0.1382,0.1282,0.1232,0.0883,0.0528,0.0195,0.0146,-0.0001,-0.0042,-0.0027,-0.0057,-0.0053,-0.0049,-0.0026,-0.0027,-0.0027,-0.0027,0,0.0629,0.0662,0.0742,0.0894,0.1002,0.1152,0.1289,0.1395,0.1498,0.1588,0.1687,0.1653,0.1318,0.0977,0.05,0.0274,0.0051,-0.0021,0.0007,0.0014,0.0018,-0.001,-0.0007,-0.0031,-0.0031,-0.0031,-0.003,-0.003,0.0683,0.0758,0.0868,0.1016,0.1154,0.1345,0.1484,0.1631,0.1803,0.1939,0.1893,0.1843,0.1455,0.0842,0.0444,0.0018,0.0033,-0.0118,-0.0114,-0.011,-0.0093,-0.0092,-0.016,-0.016,-0.016,-0.0161,-0.0161,0,0.0756,0.0849,0.0992,0.1178,0.1343,0.1407,0.1648,0.1778,0.1978,0.2057,0.2103,0.1733,0.1354,0.0911,0.0282,-0.009,-0.0111,-0.0208,-0.0149,-0.0143,-0.0138,-0.0121,-0.0196,-0.0197,-0.0199,-0.0199,0,0,0.0805,0.0946,0.1023,0.1301,0.1441,0.1677,0.1821,0.2003,0.2108,0.2154,0.2108,0.2005,0.1483,0.1021,0.0513,0.016,0.0097,0.009,0.0157,0.0293,0.0303,-0.0049,-0.0012,0,0,0,0,0]}],[{"header":{"parameterUnit":"m.s-1","parameterCategory":2,"la1":30.2991,"la2":30.254,"lo1":-89.0895,"lo2":-89.0444,"dy":0.0017,"dx":0.0017,"nx":28,"ny":28,"refTime":"2025-05-29T21:00:00:Z","depth":"4","parameterNumber":2,"parameterNumberName":"U-component_of_CURRENTS"},"data":[0,0,0,0,0,0,0,0,0,0,0,0,0,0,0,0,0,0,0,0,0,0,0,0,0,0,0,0,0,0,0,0,0,0,0,0,0,0,0,0,0,0,0,0,0,0,0,0,0,0,0,0,0,0,0,0,0,0,0.1966,0.1967,0,0.2051,0.2052,0.2053,0.2115,0.2116,0.2117,0.2117,0.2184,0.2185,0.2186,0,0,0,0,0,0,0,0,0,0,0,0,0,0.1856,0.1857,0.1965,0.1967,0.1968,0.2051,0.2052,0.2053,0.2115,0.2116,0.2117,0.2118,0.2184,0.2185,0.2186,0,0,0,0,0,0,0,0,0,0,0,0,0,0.1915,0.1857,0.1965,0.2012,0.2017,0.2051,0.2052,0.2053,0.2115,0.2116,0.2117,0.2118,0.2183,0.2185,0.2186,0.217,0,0,0.2191,0.2191,0,0,0,0,0,0,0,0,0.1912,0.1919,0.2003,0.2009,0.2015,0.2077,0.2038,0.2093,0.2114,0.2074,0.2118,0.2119,0.2148,0.2152,0.2161,0.2174,0.2176,0.2191,0.2192,0.2192,0.2193,0,0,0,0,0,0,0,0.1907,0.1915,0.1996,0.2005,0.2012,0.2029,0.2038,0.2048,0.21,0.2078,0.2083,0.2098,0.215,0.2159,0.2163,0.2177,0.2191,0.2192,0.2193,0.2194,0.23,0.2302,0,0,0,0,0,0,0.1903,0.1911,0.1993,0.1999,0.1969,0.203,0.204,0.2053,0.21,0.211,0.2097,0.21,0.2156,0.2161,0.2165,0.2258,0.2192,0.2194,0.2195,0.2298,0.23,0.2302,0,0,0,0,0,0,0.19,0.1909,0.199,0.196,0.1972,0.2031,0.2044,0.2054,0.211,0.2115,0.2124,0.2148,0.2157,0.2163,0.2212,0.2257,0.2194,0.2196,0.2296,0.2299,0.2301,0.2373,0,0,0,0,0,0,0.1896,0.1907,0.1933,0.196,0.1974,0.2038,0.2044,0.2055,0.2115,0.2122,0.2161,0.2166,0.2159,0.221,0.2213,0.2258,0.2197,0.2293,0.2297,0.23,0.2368,0.2378,0.2386,0,0,0,0,0,0.1892,0.1915,0.1934,0.1945,0.2001,0.2039,0.2049,0.2091,0.2117,0.2146,0.2175,0.2168,0.2236,0.2212,0.2216,0.2262,0.2291,0.2296,0.23,0.2364,0.2376,0.2386,0,0,0,0,0,0,0.1882,0.1925,0.1946,0.1983,0.2023,0.2052,0.2091,0.2117,0.2163,0.2185,0.2187,0.2193,0.2254,0.2248,0.2222,0.2304,0.2265,0.227,0.2312,0.2323,0.2332,0.2336,0.2198,0,0,0,0,0,0.1891,0.1925,0.1962,0.1999,0.2023,0.2066,0.2096,0.2127,0.2162,0.2187,0.2214,0.2243,0.2266,0.2289,0.2306,0.2347,0.2354,0.2381,0.239,0.2398,0.2405,0.2465,0.248,0.2317,0.2317,0.2316,0,0,0.1898,0.1929,0.1949,0.2001,0.2039,0.2073,0.2088,0.2149,0.2189,0.2184,0.2259,0.2278,0.2285,0.2334,0.2361,0.234,0.2448,0.2404,0.241,0.2413,0.2471,0.2487,0.2501,0.2319,0.2319,0.2318,0,0,0.1915,0.196,0.199,0.2026,0.2092,0.2114,0.2142,0.2198,0.2242,0.2297,0.2312,0.2361,0.2396,0.2414,0.2423,0.2493,0.2494,0.2509,0.256,0.2618,0.2632,0.2644,0.2668,0.2682,0.2514,0.2514,0.2514,0,0.1928,0.1963,0.2006,0.2044,0.2076,0.2136,0.2169,0.2219,0.2288,0.2325,0.2333,0.2414,0.2429,0.2483,0.2516,0.2514,0.2541,0.2516,0.263,0.2643,0.2654,0.2676,0.269,0.2518,0.2517,0.2517,0.2517,0,0.1952,0.1997,0.2023,0.2083,0.2123,0.217,0.2229,0.2292,0.2347,0.2389,0.2475,0.2499,0.2547,0.2565,0.2563,0.2657,0.2647,0.2635,0.2601,0.2675,0.2693,0.2707,0.2524,0.2522,0.2521,0.252,0,0,0.193,0.202,0.2034,0.2063,0.2149,0.2175,0.2258,0.2332,0.2396,0.247,0.2539,0.2601,0.264,0.2654,0.2672,0.2724,0.2829,0.2728,0.2729,0.2749,0.2952,0.2786,0.2784,0.2852,0.2855,0.2857,0.293,0,0.194,0.1999,0.2046,0.2106,0.2135,0.2211,0.2273,0.2356,0.2437,0.2523,0.2584,0.2659,0.2668,0.2708,0.2769,0.2828,0.2871,0.281,0.288,0.2881,0.2723,0.2796,0.2867,0.294,0.2943,0.2945,0.2947,0,0.1936,0.1978,0.2033,0.2108,0.2131,0.2181,0.2287,0.2357,0.2492,0.2561,0.2658,0.2714,0.2826,0.2807,0.2948,0.2919,0.2946,0.2969,0.2973,0.2801,0.274,0.2853,0.2971,0.2969,0.2968,0.2966,0.2964,0,0.187,0.196,0.2001,0.203,0.2129,0.218,0.2245,0.2376,0.245,0.2607,0.2678,0.2802,0.2893,0.2958,0.3043,0.3015,0.3173,0.3127,0.2987,0.2974,0.3069,0.3055,0.3199,0.3199,0.3199,0.3199,0.3199,0,0.1831,0.1868,0.1983,0.2003,0.2065,0.215,0.2247,0.2337,0.2477,0.2565,0.2706,0.2783,0.2947,0.3052,0.3081,0.3093,0.3212,0.3006,0.299,0.3096,0.3084,0.3078,0.3063,0.3201,0.3201,0.32,0.32,0,0.1739,0.1823,0.187,0.1986,0.2035,0.208,0.2239,0.2301,0.246,0.2579,0.2634,0.2828,0.297,0.3087,0.3214,0.3137,0.3156,0.3118,0.3235,0.3223,0.2898,0.2886,0.2946,0.2941,0.2936,0.2933,0.293,0,0.169,0.171,0.1839,0.1876,0.1937,0.204,0.2107,0.2278,0.2351,0.2575,0.2607,0.281,0.2921,0.2974,0.3102,0.3143,0.3105,0.3076,0.2964,0.2897,0.2878,0.2872,0.2866,0.2923,0.2922,0.2921,0.2919,0,0.1588,0.1652,0.1688,0.177,0.1849,0.1919,0.2036,0.2076,0.2268,0.2444,0.2536,0.2609,0.2765,0.2871,0.2948,0.2958,0.3074,0.3029,0.3036,0.2931,0.287,0.2854,0.2853,0.2904,0.2907,0.2908,0.2909,0,0.1512,0.1509,0.1577,0.1638,0.1727,0.1756,0.184,0.1935,0.2036,0.2291,0.2325,0.2537,0.2741,0.2774,0.2834,0.2857,0.2792,0.2672,0.2696,0.2714,0.2606,0.2493,0.2408,0,0,0,0,0,0.1428,0.1415,0.1443,0.1487,0.1565,0.1629,0.1768,0.1859,0.2071,0.2081,0.2197,0.2324,0.243,0.2544,0.2522,0.2709,0.2789,0.2667,0.2658,0.2822,0.2839,0.2735,0,0,0,0,0,0,0.1367,0.1383,0.139,0.1362,0.1372,0.1437,0.1524,0.1657,0.1688,0.1917,0.2006,0.2177,0.2336,0.2436,0.248,0.2513,0.2455,0.2811,0.2804,0.2812,0.2827,0.2841,0.2741,0,0,0,0,0]},{"header":{"parameterUnit":"m.s-1","parameterCategory":2,"la1":30.2991,"la2":30.254,"lo1":-89.0895,"lo2":-89.0444,"dy":0.0017,"dx":0.0017,"nx":28,"ny":28,"refTime":"2025-05-29T21:00:00:Z","depth":"4","parameterNumber":3,"parameterNumberName":"V-component_of_CURRENTS"},"data":[0,0,0,0,0,0,0,0,0,0,0,0,0,0,0,0,0,0,0,0,0,0,0,0,0,0,0,0,0,0,0,0,0,0,0,0,0,0,0,0,0,0,0,0,0,0,0,0,0,0,0,0,0,0,0,0,0,0,0.0144,0.0144,0,0.0106,0.0105,0.0105,0.0084,0.0084,0.0084,0.0084,0.0038,0.0037,0.0035,0,0,0,0,0,0,0,0,0,0,0,0,0,0.0146,0.0146,0.0144,0.0144,0.0144,0.0106,0.0105,0.0104,0.0084,0.0084,0.0084,0.0084,0.0038,0.0037,0.0035,0,0,0,0,0,0,0,0,0,0,0,0,0,0.0129,0.0146,0.0145,0.013,0.0128,0.0106,0.0105,0.0104,0.0084,0.0084,0.0084,0.0084,0.0039,0.0037,0.0035,0.0021,0,0,0.0029,0.0028,0,0,0,0,0,0,0,0,0.013,0.0129,0.0132,0.0131,0.0129,0.0101,0.0089,0.0077,0.0084,0.0099,0.0084,0.0084,0.0059,0.0055,0.0046,0.0019,0.0017,0.0029,0.0028,0.0027,0.0026,0,0,0,0,0,0,0,0.0131,0.013,0.0128,0.0132,0.013,0.0106,0.0104,0.0086,0.0078,0.0098,0.0097,0.0094,0.0058,0.0048,0.0045,0.0017,0.0029,0.0027,0.0026,0.0025,-0.0015,-0.0015,0,0,0,0,0,0,0.0141,0.0132,0.0129,0.0127,0.0131,0.0106,0.0104,0.0109,0.0078,0.0074,0.0094,0.0093,0.0051,0.0047,0.0043,0.0046,0.0027,0.0025,0.0024,-0.0015,-0.0015,-0.0015,0,0,0,0,0,0,0.0141,0.0142,0.0131,0.0129,0.0126,0.0107,0.0112,0.0108,0.0103,0.0076,0.0071,0.0094,0.0051,0.0046,0.0035,0.0043,0.0024,0.0023,-0.0015,-0.0015,-0.0015,0.0038,0,0,0,0,0,0,0.0142,0.0142,0.0148,0.013,0.0126,0.0126,0.0112,0.0107,0.0101,0.01,0.0074,0.0069,0.0051,0.0038,0.0033,0.004,0.0021,-0.0015,-0.0015,-0.0015,0.0036,0.004,0.0043,0,0,0,0,0,0.0142,0.0154,0.0148,0.0148,0.0135,0.0126,0.0122,0.0107,0.0101,0.0102,0.0086,0.007,0.0036,0.0037,0.0031,0.0038,-0.0016,-0.0015,-0.0015,0.0035,0.0039,0.0043,0,0,0,0,0,0,0.0156,0.0152,0.0146,0.0155,0.0144,0.0123,0.0123,0.0112,0.0098,0.0099,0.0073,0.0067,0.006,0.0039,0.0042,0.0025,0.0007,0.0006,0.0046,0.0051,0.0054,0.0075,0.0019,0,0,0,0,0,0.0162,0.0171,0.0158,0.0165,0.0162,0.0143,0.0137,0.0128,0.0114,0.0108,0.009,0.007,0.0054,0.0047,0.0028,0.002,-0.0009,0.0019,0.0022,0.0026,0.0038,0.0002,0.0004,-0.0015,-0.0015,-0.0015,0,0,0.0168,0.0168,0.0172,0.0168,0.0159,0.0163,0.014,0.0137,0.0144,0.0105,0.0108,0.0081,0.0054,0.0047,0.0041,0.0033,0.0012,0.0026,0.0029,0.004,0.0002,0.0004,0.0006,-0.0014,-0.0014,-0.0014,0,0,0.0188,0.0187,0.02,0.0198,0.0191,0.018,0.0182,0.0165,0.0162,0.0155,0.0132,0.0114,0.0086,0.0073,0.0061,0.0071,0.0031,0.006,0.0098,0.0062,0.0064,0.0065,0.0018,0.0015,0.0063,0.0063,0.0063,0,0.0195,0.0216,0.0201,0.0214,0.0223,0.0192,0.0212,0.02,0.0182,0.0186,0.0164,0.0126,0.0101,0.0098,0.0101,0.0081,0.0049,0.0086,0.0068,0.0068,0.0069,0.002,0.0016,0.0066,0.0066,0.0065,0.0065,0,0.0225,0.0243,0.0251,0.0263,0.0266,0.0278,0.0266,0.0268,0.0254,0.0238,0.0227,0.0184,0.0166,0.0148,0.0128,0.0121,0.0093,0.0076,0.0061,0.0074,0.0022,0.0016,0.007,0.0069,0.0068,0.0067,0,0,0.0241,0.0269,0.0273,0.0301,0.03,0.0312,0.0325,0.0333,0.0353,0.0309,0.0322,0.0278,0.0247,0.0232,0.0197,0.0163,0.0128,0.0126,0.0123,0.0087,0.0039,0.0021,0.0012,0.0107,0.0107,0.0107,-0.0002,0,0.0272,0.0321,0.0323,0.0373,0.0401,0.0394,0.0415,0.0416,0.0402,0.0401,0.0346,0.0336,0.0281,0.0275,0.0231,0.0162,0.0117,0.0158,0.0027,0.0023,0.0011,0.0007,0.0105,-0.0006,-0.0008,-0.0009,-0.0009,0,0.0302,0.0337,0.0395,0.0454,0.0467,0.0489,0.0533,0.0552,0.0535,0.0523,0.0488,0.0435,0.0386,0.0333,0.021,0.0237,0.0147,0.0079,0.0072,0.0038,-0.0005,-0.0021,-0.002,-0.002,-0.0019,-0.0018,-0.0017,0,0.0335,0.0392,0.0449,0.0466,0.0515,0.0551,0.0581,0.0589,0.0628,0.0603,0.0608,0.0522,0.0494,0.0369,0.0217,0.0216,0.0067,0.0047,-0.0062,-0.0066,-0.004,-0.004,-0.0047,-0.0046,-0.0046,-0.0046,-0.0046,0,0.0373,0.0421,0.0474,0.0507,0.0593,0.0608,0.0691,0.0703,0.0728,0.0771,0.0679,0.0674,0.0503,0.039,0.024,0.007,0.0078,-0.0054,-0.009,-0.0018,-0.0014,-0.0046,-0.0044,-0.005,-0.0049,-0.0048,-0.0048,0,0.04,0.0429,0.0508,0.058,0.0612,0.0679,0.0782,0.0838,0.0845,0.0896,0.0893,0.0796,0.0648,0.0452,0.0247,0.0117,-0.0055,-0.0123,-0.004,-0.007,-0.0173,-0.0167,-0.0244,-0.0246,-0.0247,-0.0248,-0.0249,0,0.0417,0.0457,0.0566,0.0629,0.0668,0.0769,0.0844,0.0896,0.0957,0.0967,0.0991,0.0867,0.077,0.0469,0.0253,-0.0045,-0.009,-0.0189,-0.0174,-0.0163,-0.0191,-0.0184,-0.0177,-0.0251,-0.0251,-0.0251,-0.0251,0,0.0455,0.0492,0.0561,0.0687,0.0781,0.09,0.1004,0.1054,0.1108,0.111,0.1075,0.0909,0.0737,0.0485,0.0245,0.0031,-0.0127,-0.0202,-0.0201,-0.0188,-0.0172,-0.0197,-0.0189,-0.0256,-0.0255,-0.0255,-0.0254,0,0.0484,0.054,0.063,0.0748,0.0869,0.099,0.1047,0.1116,0.1173,0.1171,0.1153,0.0955,0.0844,0.0523,0.0303,0.0088,0.0035,-0.0036,-0.0044,-0.0043,0.0042,0.0093,0.0065,0,0,0,0,0,0.051,0.0578,0.0687,0.0817,0.0937,0.1015,0.1137,0.1181,0.1218,0.1209,0.1188,0.1022,0.0703,0.0565,0.035,0.0264,-0.0016,0.0002,-0.0105,-0.0279,-0.0274,-0.0211,0,0,0,0,0,0,0.0529,0.0624,0.0686,0.0849,0.0945,0.1088,0.1171,0.1204,0.1201,0.1196,0.1037,0.0956,0.065,0.0826,0.0342,0.0275,0.0175,-0.0145,-0.015,-0.0282,-0.0277,-0.0273,-0.0207,0,0,0,0,0]}]]